Simultaneous Nadir Overpasses (SNOs) Predictions

Prediction of SNOs between GOES-15 and NOAA-20 Satellite Orbit:

Table of predicted SNOs for the next 14.0 days since TLE Epoch: 3/26/2022
Index Date Time (GOES-15) GOES-15 Lat,Lon NOAA-20 Lat,Lon Distance(km) Time Diff (sec)
1 03/27/2022 10:14:31 0.10,-128.30 0.88,-131.84 402.92 80
2 03/28/2022 09:53:08 0.11,-128.32 -0.15,-127.31 115.59 80
3 03/29/2022 22:15:05 -0.11,-128.37 -1.04,-132.62 483.67 80
4 03/30/2022 21:59:01 -0.11,-128.39 -0.07,-128.08 35.12 80
5 04/02/2022 10:02:06 0.11,-128.43 0.20,-128.83 45.42 80
6 04/03/2022 09:40:43 0.11,-128.45 -0.84,-124.30 472.78 80
7 04/04/2022 22:02:40 -0.11,-128.49 -0.35,-129.61 127.23 80
8 04/05/2022 21:46:36 -0.11,-128.50 0.63,-125.07 390.85 80
9 04/07/2022 10:08:25 0.11,-128.51 0.53,-130.34 208.98 80
10 04/08/2022 09:47:02 0.12,-128.52 -0.50,-125.82 308.57 80
